Meteo Giornale » Osservazioni meteo Lettonia » Ventspils International Airport
ore: 00:50 - Osservazioni Meteo Ventspils International Airport
Lat. 57° 21' N Lon. 21° 33' E Alt. 6 metri s.l.m.
17 °C
Molto Nuvoloso
Temp. 24 Ore
11 °C
19 °C
Sud-Ovest
11.1 Km/h
Dew point 16 °C
Umidità 93 %
Visibilità 10 Km
Il sole sorge alle ore 06:37
Il sole tramonta alle ore 20:29
| Data e Ora | Cielo e Fenomeni | T °C | DP °C | Um. % | Pres. hPa | Vis. km | Vento km/h | |
|---|---|---|---|---|---|---|---|---|
| Oggi h: 00:50 | Molto Nuvoloso | 17 | 16 | 93 | 1009 | 10 | SO 11.1 | |
| Oggi h: 00:20 | Molto Nuvoloso | 17 | 16 | 93 | 1009 | 10 | O/SO 13 | |
| Ieri h: 23:50 | Molto Nuvoloso | 17 | 16 | 93 | 1009 | 10 | O/SO 9.3 | |
| Ieri h: 23:20 | Molto Nuvoloso | 17 | 16 | 93 | 1009 | 10 | O/SO 9.3 | |
| Ieri h: 22:50 | Molto Nuvoloso | 17 | 16 | 93 | 1009 | 10 | O/SO 9.3 | |
| Ieri h: 22:20 | Molto Nuvoloso | 17 | 16 | 93 | 1009 | 10 | O/SO 9.3 | |
| Ieri h: 21:50 | Molto Nuvoloso | 17 | 16 | 93 | 1009 | 10 | O/SO 9.3 | |
| Ieri h: 21:20 | Poco Nuvoloso | 16 | 16 | 100 | 1009 | 10 | O/SO 7.4 | |
| Ieri h: 20:50 | Poco Nuvoloso | 17 | 16 | 93 | 1009 | 10 | O/SO 7.4 | |
| Ieri h: 20:20 | Nuvoloso | 17 | 16 | 93 | 1009 | 10 | O/SO 7.4 | |
| Ieri h: 19:50 | Nuvoloso | 18 | 16 | 88 | 1009 | 10 | N 5.5 | |
| Ieri h: 19:20 | Poco Nuvoloso | 18 | 16 | 88 | 1009 | 10 | O/SO 7.4 | |
| Ieri h: 18:50 | Nuvoloso | 18 | 16 | 88 | 1009 | 10 | O/SO 11.1 | |
| Ieri h: 18:20 | Poco Nuvoloso | 18 | 16 | 88 | 1009 | 10 | O/SO 7.4 | |
| Ieri h: 17:50 | Poco Nuvoloso | 18 | 16 | 88 | 1009 | 10 | O/SO 9.3 | |
| Ieri h: 17:20 | Nuvoloso | 19 | 16 | 82 | 1009 | 10 | O/SO 9.3 | |
| Ieri h: 16:50 | Molto Nuvoloso | 18 | 16 | 88 | 1009 | 10 | O/SO 9.3 | |
| Ieri h: 16:20 | Sereno | 18 | 16 | 88 | 1009 | 10 | O/SO 9.3 | |
| Ieri h: 15:50 | Sereno | 18 | 16 | 88 | 1009 | 10 | O/SO 9.3 | |
| Ieri h: 15:20 | Sereno | 18 | 16 | 88 | 1009 | 10 | O 11.1 | |
| Ieri h: 14:50 | Sereno | 19 | 16 | 82 | 1009 | 10 | S/SO 7.4 | |
| Ieri h: 14:20 | Sereno | 18 | 16 | 88 | 1009 | 10 | S 7.4 | |
| Ieri h: 13:50 | Sereno | 17 | 16 | 93 | 1009 | 10 | S 7.4 | |
| Ieri h: 13:20 | Sereno | 17 | 16 | 93 | 1008 | 10 | N 5.5 | |
| Ieri h: 12:50 | Sereno | 17 | 16 | 93 | 1008 | 10 | N 3.7 | |
| Ieri h: 12:20 | Sereno | 17 | 17 | 100 | 1009 | 10 | N 5.5 | |
| Ieri h: 11:50 | Sereno | 17 | 17 | 100 | 1008 | 10 | N 5.5 | |
| Ieri h: 11:20 | Pioggia | 17 | 17 | 100 | 1008 | 10 | N 5.5 | |
| Ieri h: 10:50 | Nuvoloso | 17 | 17 | 100 | 1008 | 10 | N 5.5 | |
| Ieri h: 10:20 | Pioggia | 17 | 17 | 100 | 1008 | 10 | N 5.5 | |
| Ieri h: 09:50 | Nuvoloso | 16 | 16 | 100 | 1008 | 10 | N 1.8 | |
| Ieri h: 09:20 | Pioggia | 16 | 16 | 100 | 1008 | 8 | N 3.7 | |
| Ieri h: 08:50 | Molto Nuvoloso | 16 | 16 | 100 | 1008 | 10 | N 3.7 | |
| Ieri h: 08:20 | Molto Nuvoloso | 15 | 15 | 100 | 1008 | 10 | N 3.7 | |
| Ieri h: 07:50 | Molto Nuvoloso | 14 | 14 | 100 | 1009 | 6 | N 0 | |
| Ieri h: 07:20 | Nebbia | 12 | 12 | 100 | 1008 | 0.6 | N 3.7 | |
| Ieri h: 06:50 | Foschia | 12 | 12 | 100 | 1009 | 4 | N 1.8 | |
| Ieri h: 06:20 | Nebbia | 11 | 11 | 100 | 1009 | 0.55 | N 0 | |
| Ieri h: 05:50 | Nebbia | 12 | 12 | 100 | 1009 | 0.5 | N 0 | |
| Ieri h: 05:20 | Nebbia | 12 | 12 | 100 | 1009 | 0.55 | N 0 | |
| Ieri h: 04:50 | Nebbia | 13 | 13 | 100 | 1009 | 0.45 | N 1.8 | |
| Ieri h: 04:20 | Nebbia a tratti | 14 | 14 | 100 | 1009 | 1 | N 0 | |
| Ieri h: 03:50 | Nebbia | 14 | 14 | 100 | 1009 | 0.7 | N 1.8 | |
| Ieri h: 03:20 | Nebbia | 13 | 13 | 100 | 1009 | 0.45 | N 1.8 | |
| Ieri h: 02:50 | Nebbia | 14 | 14 | 100 | 1009 | 0.55 | N 0 | |
| Ieri h: 02:20 | Nebbia | 14 | 14 | 100 | 1010 | 0.6 | N 1.8 | |
| Ieri h: 01:50 | Foschia | 14 | 14 | 100 | 1010 | 4 | N 0 | |



